Time,TemperatureF,DewpointF,PressureIn,WindDirection,WindDirectionDegrees,WindSpeedMPH,WindSpeedGustMPH,Humidity,HourlyPrecipIn,Conditions,Clouds,dailyrainin,SoftwareType,DateUTC
2013-12-15 00:01:00,45.5,44.7,29.71,WSW,256,0.0,0.0,97,0.00,,,0.56,VWS V14.01,2013-12-15 05:01:00,
2013-12-15 00:02:00,45.4,44.6,29.71,NNW,332,3.0,0.0,97,0.00,,,0.00,VWS V14.01,2013-12-15 05:02:00,
2013-12-15 00:03:00,45.4,44.6,29.71,NNW,332,2.0,0.0,97,0.00,,,0.00,VWS V14.01,2013-12-15 05:03:00,
2013-12-15 00:04:00,45.4,44.6,29.71,ENE,57,1.0,0.0,97,0.00,,,0.00,VWS V14.01,2013-12-15 05:04:00,
2013-12-15 00:09:00,45.2,44.4,29.71,WSW,237,1.0,0.0,97,0.00,,,0.00,VWS V14.01,2013-12-15 05:09:00,
2013-12-15 00:14:00,45.1,44.3,29.71,WNW,294,5.0,0.0,97,0.00,,,0.00,VWS V14.01,2013-12-15 05:14:00,
2013-12-15 00:19:00,44.9,44.1,29.71,WNW,292,4.0,0.0,97,0.01,,,0.01,VWS V14.01,2013-12-15 05:19:00,
2013-12-15 00:24:00,44.5,43.7,29.71,NNE,13,1.0,0.0,97,0.01,,,0.01,VWS V14.01,2013-12-15 05:24:00,
2013-12-15 00:30:00,44.1,43.3,29.71,WNW,292,2.0,0.0,97,0.01,,,0.01,VWS V14.01,2013-12-15 05:30:00,
2013-12-15 00:35:00,43.9,43.1,29.71,North,360,6.0,0.0,97,0.01,,,0.01,VWS V14.01,2013-12-15 05:35:00,
2013-12-15 00:40:00,43.8,43.0,29.71,West,277,4.0,0.0,97,0.01,,,0.01,VWS V14.01,2013-12-15 05:40:00,
2013-12-15 00:45:00,43.5,42.7,29.71,WNW,302,6.0,0.0,97,0.01,,,0.01,VWS V14.01,2013-12-15 05:45:00,
2013-12-15 00:50:00,43.3,42.5,29.71,West,273,2.0,0.0,97,0.02,,,0.02,VWS V14.01,2013-12-15 05:50:00,
2013-12-15 00:55:00,43.2,42.4,29.71,West,280,5.0,0.0,97,0.02,,,0.02,VWS V14.01,2013-12-15 05:55:00,
2013-12-15 01:00:00,43.1,42.0,29.71,WNW,290,5.0,0.0,96,0.02,,,0.02,VWS V14.01,2013-12-15 06:00:00,
2013-12-15 01:05:00,42.8,41.7,29.73,NNW,331,4.0,0.0,96,0.02,,,0.02,VWS V14.01,2013-12-15 06:05:00,
2013-12-15 01:10:00,42.6,41.5,29.73,WNW,285,5.0,0.0,96,0.02,,,0.02,VWS V14.01,2013-12-15 06:10:00,
2013-12-15 01:15:00,42.5,41.4,29.73,WNW,301,2.0,0.0,96,0.02,,,0.02,VWS V14.01,2013-12-15 06:15:00,
2013-12-15 01:20:00,42.3,41.2,29.73,North,351,4.0,0.0,96,0.02,,,0.02,VWS V14.01,2013-12-15 06:20:00,
2013-12-15 01:25:00,42.1,41.0,29.73,NW,304,6.0,0.0,96,0.01,,,0.02,VWS V14.01,2013-12-15 06:25:00,
2013-12-15 01:30:00,41.9,40.8,29.71,SSW,206,8.0,0.0,96,0.02,,,0.03,VWS V14.01,2013-12-15 06:30:00,
2013-12-15 01:35:00,41.6,40.5,29.71,South,185,6.0,0.0,96,0.02,,,0.03,VWS V14.01,2013-12-15 06:35:00,
2013-12-15 01:40:00,41.5,40.5,29.71,WNW,292,7.0,0.0,96,0.02,,,0.03,VWS V14.01,2013-12-15 06:40:00,
2013-12-15 01:45:00,41.3,40.2,29.73,NW,320,6.0,0.0,96,0.02,,,0.03,VWS V14.01,2013-12-15 06:45:00,
2013-12-15 01:50:00,41.2,41.2,29.73,SSE,160,2.0,0.0,100,0.01,,,0.03,VWS V14.01,2013-12-15 06:50:00,
2013-12-15 01:55:00,41.1,40.0,29.73,WSW,257,2.0,0.0,96,0.01,,,0.03,VWS V14.01,2013-12-15 06:55:00,
2013-12-15 02:00:00,41.1,40.0,29.75,NNW,329,1.0,0.0,96,0.01,,,0.03,VWS V14.01,2013-12-15 07:00:00,
2013-12-15 02:05:00,40.9,39.8,29.75,West,268,5.0,0.0,96,0.01,,,0.03,VWS V14.01,2013-12-15 07:05:00,
2013-12-15 02:10:00,40.9,39.6,29.75,NW,323,0.0,0.0,95,0.01,,,0.03,VWS V14.01,2013-12-15 07:10:00,
2013-12-15 02:15:00,40.8,39.5,29.75,NW,323,3.0,0.0,95,0.01,,,0.03,VWS V14.01,2013-12-15 07:15:00,
2013-12-15 02:20:00,40.8,39.5,29.75,WNW,287,5.0,0.0,95,0.01,,,0.03,VWS V14.01,2013-12-15 07:20:00,
2013-12-15 02:25:00,40.6,39.0,29.75,WNW,298,0.0,0.0,94,0.01,,,0.03,VWS V14.01,2013-12-15 07:25:00,
2013-12-15 02:30:00,40.6,39.0,29.75,WSW,240,2.0,0.0,94,0.01,,,0.03,VWS V14.01,2013-12-15 07:30:00,
2013-12-15 02:36:00,40.3,38.4,29.75,SW,229,0.0,0.0,93,0.00,,,0.03,VWS V14.01,2013-12-15 07:36:00,
2013-12-15 02:41:00,40.2,38.3,29.75,NW,318,5.0,0.0,93,0.00,,,0.03,VWS V14.01,2013-12-15 07:41:00,
2013-12-15 02:46:00,40.1,38.0,29.75,WSW,253,2.0,0.0,92,0.00,,,0.03,VWS V14.01,2013-12-15 07:46:00,
2013-12-15 02:51:00,39.9,37.8,29.75,SW,234,3.0,0.0,92,0.00,,,0.03,VWS V14.01,2013-12-15 07:51:00,
2013-12-15 02:56:00,39.8,37.7,29.75,WSW,244,3.0,0.0,92,0.00,,,0.03,VWS V14.01,2013-12-15 07:56:00,
2013-12-15 03:01:00,39.6,37.5,29.77,WNW,282,5.0,0.0,92,0.00,,,0.03,VWS V14.01,2013-12-15 08:01:00,
2013-12-15 03:06:00,39.6,37.2,29.77,SW,222,4.0,0.0,91,0.00,,,0.03,VWS V14.01,2013-12-15 08:06:00,
2013-12-15 03:11:00,39.5,37.1,29.77,West,274,4.0,0.0,91,0.00,,,0.03,VWS V14.01,2013-12-15 08:11:00,
2013-12-15 03:16:00,39.3,36.9,29.77,WSW,238,1.0,0.0,91,0.00,,,0.03,VWS V14.01,2013-12-15 08:16:00,
2013-12-15 03:21:00,39.2,36.8,29.77,SSW,202,5.0,0.0,91,0.00,,,0.03,VWS V14.01,2013-12-15 08:21:00,
2013-12-15 03:26:00,39.2,36.8,29.77,SW,225,3.0,0.0,91,0.00,,,0.03,VWS V14.01,2013-12-15 08:26:00,
2013-12-15 03:31:00,39.1,36.7,29.78,SSW,192,2.0,0.0,91,0.00,,,0.03,VWS V14.01,2013-12-15 08:31:00,
2013-12-15 03:36:00,38.9,36.5,29.78,WNW,288,4.0,0.0,91,0.00,,,0.03,VWS V14.01,2013-12-15 08:36:00,
2013-12-15 03:41:00,38.8,36.1,29.78,WNW,290,5.0,0.0,90,0.00,,,0.03,VWS V14.01,2013-12-15 08:41:00,
2013-12-15 03:46:00,38.8,36.1,29.78,WNW,295,6.0,0.0,90,0.00,,,0.03,VWS V14.01,2013-12-15 08:46:00,
2013-12-15 03:51:00,38.8,36.1,29.78,WNW,298,3.0,0.0,90,0.00,,,0.03,VWS V14.01,2013-12-15 08:51:00,
2013-12-15 03:56:00,38.6,35.9,29.78,NNW,334,1.0,0.0,90,0.00,,,0.03,VWS V14.01,2013-12-15 08:56:00,
2013-12-15 04:01:00,38.5,35.8,29.79,NNW,336,4.0,0.0,90,0.00,,,0.03,VWS V14.01,2013-12-15 09:01:00,
2013-12-15 04:06:00,38.5,35.8,29.79,NW,304,3.0,0.0,90,0.00,,,0.03,VWS V14.01,2013-12-15 09:06:00,
2013-12-15 04:11:00,38.3,35.3,29.79,West,281,3.0,0.0,89,0.00,,,0.03,VWS V14.01,2013-12-15 09:11:00,
2013-12-15 04:16:00,38.2,35.0,29.79,WNW,286,6.0,0.0,88,0.00,,,0.03,VWS V14.01,2013-12-15 09:16:00,
2013-12-15 04:21:00,38.0,34.8,29.79,North,355,3.0,0.0,88,0.00,,,0.03,VWS V14.01,2013-12-15 09:21:00,
2013-12-15 04:26:00,38.0,34.8,29.79,WNW,287,1.0,0.0,88,0.00,,,0.03,VWS V14.01,2013-12-15 09:26:00,
2013-12-15 04:31:00,37.9,34.7,29.80,WSW,249,2.0,0.0,88,0.00,,,0.03,VWS V14.01,2013-12-15 09:31:00,
2013-12-15 04:37:00,37.8,34.3,29.80,West,273,4.0,0.0,87,0.00,,,0.03,VWS V14.01,2013-12-15 09:37:00,
2013-12-15 04:42:00,37.8,34.3,29.80,WSW,254,2.0,0.0,87,0.00,,,0.03,VWS V14.01,2013-12-15 09:42:00,
2013-12-15 04:47:00,37.6,34.1,29.80,WNW,292,2.0,0.0,87,0.00,,,0.03,VWS V14.01,2013-12-15 09:47:00,
2013-12-15 04:52:00,37.6,34.4,29.80,NW,317,3.0,0.0,88,0.00,,,0.03,VWS V14.01,2013-12-15 09:52:00,
2013-12-15 04:57:00,37.5,34.0,29.80,WNW,301,3.0,0.0,87,0.00,,,0.03,VWS V14.01,2013-12-15 09:57:00,
2013-12-15 05:02:00,37.3,33.8,29.81,SW,234,4.0,0.0,87,0.00,,,0.03,VWS V14.01,2013-12-15 10:02:00,
2013-12-15 05:07:00,37.2,33.7,29.81,WNW,287,3.0,0.0,87,0.00,,,0.03,VWS V14.01,2013-12-15 10:07:00,
2013-12-15 05:12:00,37.0,33.2,29.81,West,275,1.0,0.0,86,0.00,,,0.03,VWS V14.01,2013-12-15 10:12:00,
2013-12-15 05:17:00,36.9,32.5,29.82,WSW,237,2.0,0.0,84,0.00,,,0.03,VWS V14.01,2013-12-15 10:17:00,
2013-12-15 05:22:00,36.8,32.7,29.82,SW,227,4.0,0.0,85,0.00,,,0.03,VWS V14.01,2013-12-15 10:22:00,
2013-12-15 05:27:00,36.8,32.7,29.82,SSE,161,2.0,0.0,85,0.00,,,0.03,VWS V14.01,2013-12-15 10:27:00,
2013-12-15 05:32:00,36.8,33.0,29.82,WSW,240,3.0,0.0,86,0.00,,,0.03,VWS V14.01,2013-12-15 10:32:00,
2013-12-15 05:37:00,36.5,32.7,29.82,WNW,291,2.0,0.0,86,0.00,,,0.03,VWS V14.01,2013-12-15 10:37:00,
2013-12-15 05:42:00,36.3,32.2,29.82,West,277,6.0,0.0,85,0.00,,,0.03,VWS V14.01,2013-12-15 10:42:00,
2013-12-15 05:47:00,36.0,32.2,29.82,West,262,6.0,0.0,86,0.00,,,0.03,VWS V14.01,2013-12-15 10:47:00,
2013-12-15 05:52:00,35.9,32.1,29.82,West,279,7.0,0.0,86,0.00,,,0.03,VWS V14.01,2013-12-15 10:52:00,
2013-12-15 05:57:00,35.6,32.1,29.82,WNW,290,2.0,0.0,87,0.00,,,0.03,VWS V14.01,2013-12-15 10:57:00,
2013-12-15 06:02:00,35.3,32.1,29.84,WNW,294,9.0,0.0,88,0.00,,,0.03,VWS V14.01,2013-12-15 11:02:00,
2013-12-15 06:07:00,35.2,32.0,29.84,West,279,5.0,0.0,88,0.00,,,0.03,VWS V14.01,2013-12-15 11:07:00,
2013-12-15 06:12:00,34.9,32.0,29.84,NNW,327,4.0,0.0,89,0.00,,,0.03,VWS V14.01,2013-12-15 11:12:00,
2013-12-15 06:17:00,34.7,31.8,29.86,SW,217,1.0,0.0,89,0.00,,,0.03,VWS V14.01,2013-12-15 11:17:00,
2013-12-15 06:22:00,34.6,31.7,29.86,West,273,2.0,0.0,89,0.00,,,0.03,VWS V14.01,2013-12-15 11:22:00,
2013-12-15 06:27:00,34.6,32.0,29.86,WSW,244,2.0,0.0,90,0.00,,,0.03,VWS V14.01,2013-12-15 11:27:00,
2013-12-15 06:32:00,34.6,32.0,29.86,West,275,2.0,0.0,90,0.00,,,0.03,VWS V14.01,2013-12-15 11:32:00,
2013-12-15 06:38:00,34.4,31.8,29.86,WNW,298,5.0,0.0,90,0.00,,,0.03,VWS V14.01,2013-12-15 11:38:00,
2013-12-15 06:43:00,34.3,31.7,29.86,WNW,292,5.0,0.0,90,0.00,,,0.03,VWS V14.01,2013-12-15 11:43:00,
2013-12-15 06:48:00,34.3,31.7,29.88,West,280,5.0,0.0,90,0.00,,,0.03,VWS V14.01,2013-12-15 11:48:00,
2013-12-15 06:53:00,34.1,31.8,29.88,WSW,257,1.0,0.0,91,0.00,,,0.03,VWS V14.01,2013-12-15 11:53:00,
2013-12-15 06:58:00,34.1,31.8,29.88,WNW,300,2.0,0.0,91,0.00,,,0.03,VWS V14.01,2013-12-15 11:58:00,
2013-12-15 07:03:00,34.0,31.6,29.89,West,259,2.0,0.0,91,0.00,,,0.03,VWS V14.01,2013-12-15 12:03:00,
2013-12-15 07:08:00,33.8,31.5,29.89,WSW,248,6.0,0.0,91,0.00,,,0.03,VWS V14.01,2013-12-15 12:08:00,
2013-12-15 07:13:00,33.8,31.5,29.89,NW,322,1.0,0.0,91,0.00,,,0.03,VWS V14.01,2013-12-15 12:13:00,
2013-12-15 07:18:00,33.7,31.4,29.89,NW,319,6.0,0.0,91,0.00,,,0.03,VWS V14.01,2013-12-15 12:18:00,
2013-12-15 07:23:00,33.7,31.4,29.89,WNW,294,2.0,0.0,91,0.00,,,0.03,VWS V14.01,2013-12-15 12:23:00,
2013-12-15 07:28:00,33.7,31.4,29.89,WNW,287,2.0,0.0,91,0.00,,,0.03,VWS V14.01,2013-12-15 12:28:00,
2013-12-15 07:33:00,33.5,30.9,29.90,SW,232,3.0,0.0,90,0.00,,,0.03,VWS V14.01,2013-12-15 12:33:00,
2013-12-15 07:38:00,33.5,30.9,29.90,WSW,255,3.0,0.0,90,0.00,,,0.03,VWS V14.01,2013-12-15 12:38:00,
2013-12-15 07:43:00,33.5,30.6,29.90,WSW,241,5.0,0.0,89,0.00,,,0.03,VWS V14.01,2013-12-15 12:43:00,
2013-12-15 07:48:00,33.5,30.6,29.91,NW,305,0.0,0.0,89,0.00,,,0.03,VWS V14.01,2013-12-15 12:48:00,
2013-12-15 07:53:00,33.5,30.3,29.91,WSW,255,4.0,0.0,88,0.00,,,0.03,VWS V14.01,2013-12-15 12:53:00,
2013-12-15 07:58:00,33.5,30.3,29.91,West,270,3.0,0.0,88,0.00,,,0.03,VWS V14.01,2013-12-15 12:58:00,
2013-12-15 08:03:00,33.5,30.3,29.92,NW,314,1.0,0.0,88,0.00,,,0.03,VWS V14.01,2013-12-15 13:03:00,
2013-12-15 08:08:00,33.7,30.2,29.92,West,265,3.0,0.0,87,0.00,,,0.03,VWS V14.01,2013-12-15 13:08:00,
2013-12-15 08:13:00,33.7,30.5,29.92,WNW,298,3.0,0.0,88,0.00,,,0.03,VWS V14.01,2013-12-15 13:13:00,
2013-12-15 08:18:00,33.7,30.5,29.92,NW,317,4.0,0.0,88,0.00,,,0.03,VWS V14.01,2013-12-15 13:18:00,
2013-12-15 08:24:00,33.7,30.5,29.92,West,272,0.0,0.0,88,0.00,,,0.03,VWS V14.01,2013-12-15 13:24:00,
2013-12-15 08:29:00,33.7,30.8,29.92,SW,234,1.0,0.0,89,0.00,,,0.03,VWS V14.01,2013-12-15 13:29:00,
2013-12-15 08:34:00,33.7,30.8,29.93,WNW,286,1.0,0.0,89,0.00,,,0.03,VWS V14.01,2013-12-15 13:34:00,
2013-12-15 08:39:00,33.7,30.8,29.93,SW,236,3.0,0.0,89,0.00,,,0.03,VWS V14.01,2013-12-15 13:39:00,
2013-12-15 08:44:00,33.5,30.6,29.93,SSW,204,0.0,0.0,89,0.00,,,0.03,VWS V14.01,2013-12-15 13:44:00,
2013-12-15 08:49:00,33.7,30.5,29.93,WSW,239,2.0,0.0,88,0.00,,,0.03,VWS V14.01,2013-12-15 13:49:00,
2013-12-15 08:54:00,33.5,30.3,29.93,WSW,240,2.0,0.0,88,0.00,,,0.03,VWS V14.01,2013-12-15 13:54:00,
2013-12-15 08:59:00,33.5,30.0,29.93,SW,227,2.0,0.0,87,0.00,,,0.03,VWS V14.01,2013-12-15 13:59:00,
2013-12-15 09:04:00,33.5,30.0,29.94,WSW,242,1.0,0.0,87,0.00,,,0.03,VWS V14.01,2013-12-15 14:04:00,
2013-12-15 09:09:00,33.5,29.5,29.94,West,267,6.0,0.0,85,0.00,,,0.03,VWS V14.01,2013-12-15 14:09:00,
2013-12-15 09:14:00,33.5,29.5,29.94,WSW,257,0.0,0.0,85,0.00,,,0.03,VWS V14.01,2013-12-15 14:14:00,
2013-12-15 09:19:00,33.4,29.7,29.95,SW,227,4.0,0.0,86,0.00,,,0.03,VWS V14.01,2013-12-15 14:19:00,
2013-12-15 09:24:00,33.4,30.0,29.95,WSW,240,0.0,0.0,87,0.00,,,0.03,VWS V14.01,2013-12-15 14:24:00,
2013-12-15 09:29:00,33.4,30.2,29.95,WNW,290,2.0,0.0,88,0.00,,,0.03,VWS V14.01,2013-12-15 14:29:00,
2013-12-15 09:34:00,33.2,30.3,29.96,SW,232,1.0,0.0,89,0.00,,,0.03,VWS V14.01,2013-12-15 14:34:00,
2013-12-15 09:39:00,33.2,30.6,29.96,SW,232,1.0,0.0,90,0.00,,,0.03,VWS V14.01,2013-12-15 14:39:00,
2013-12-15 09:44:00,33.1,30.5,29.96,WNW,289,1.0,0.0,90,0.00,,,0.03,VWS V14.01,2013-12-15 14:44:00,
2013-12-15 09:49:00,33.1,30.5,29.96,SW,217,3.0,0.0,90,0.00,,,0.03,VWS V14.01,2013-12-15 14:49:00,
2013-12-15 09:54:00,33.1,30.8,29.96,West,267,0.0,0.0,91,0.00,,,0.03,VWS V14.01,2013-12-15 14:54:00,
2013-12-15 09:59:00,33.2,30.9,29.96,SSW,198,2.0,0.0,91,0.00,,,0.03,VWS V14.01,2013-12-15 14:59:00,
2013-12-15 10:04:00,33.2,30.9,29.97,WSW,244,3.0,0.0,91,0.00,,,0.03,VWS V14.01,2013-12-15 15:04:00,
2013-12-15 10:09:00,33.2,30.6,29.97,WNW,285,4.0,0.0,90,0.00,,,0.03,VWS V14.01,2013-12-15 15:09:00,
2013-12-15 10:14:00,33.2,30.6,29.97,WNW,285,1.0,0.0,90,0.00,,,0.03,VWS V14.01,2013-12-15 15:14:00,
2013-12-15 10:20:00,33.1,30.5,29.97,SW,229,6.0,0.0,90,0.00,,,0.03,VWS V14.01,2013-12-15 15:20:00,
2013-12-15 10:25:00,33.1,30.5,29.97,West,265,4.0,0.0,90,0.00,,,0.03,VWS V14.01,2013-12-15 15:25:00,
2013-12-15 10:30:00,33.1,30.2,29.97,West,279,0.0,0.0,89,0.00,,,0.03,VWS V14.01,2013-12-15 15:30:00,
2013-12-15 10:35:00,33.2,30.3,29.97,WNW,298,4.0,0.0,89,0.00,,,0.03,VWS V14.01,2013-12-15 15:35:00,
2013-12-15 10:40:00,33.4,30.5,29.97,WNW,293,6.0,0.0,89,0.00,,,0.03,VWS V14.01,2013-12-15 15:40:00,
2013-12-15 10:45:00,33.2,30.0,29.97,WNW,288,6.0,0.0,88,0.00,,,0.03,VWS V14.01,2013-12-15 15:45:00,
2013-12-15 10:50:00,32.9,30.0,29.98,SW,217,6.0,0.0,89,0.00,,,0.03,VWS V14.01,2013-12-15 15:50:00,
2013-12-15 10:55:00,32.8,30.2,29.98,WNW,295,0.0,0.0,90,0.00,,,0.03,VWS V14.01,2013-12-15 15:55:00,
2013-12-15 11:00:00,32.7,30.4,29.98,SSW,207,3.0,0.0,91,0.00,,,0.03,VWS V14.01,2013-12-15 16:00:00,
2013-12-15 11:05:00,32.4,30.3,29.98,SW,215,3.0,0.0,92,0.00,,,0.03,VWS V14.01,2013-12-15 16:05:00,
2013-12-15 11:10:00,32.1,30.0,29.98,SW,217,2.0,0.0,92,0.00,,,0.03,VWS V14.01,2013-12-15 16:10:00,
2013-12-15 11:15:00,31.9,29.6,29.98,SSW,206,2.0,0.0,91,0.00,,,0.03,VWS V14.01,2013-12-15 16:15:00,
2013-12-15 11:20:00,31.8,29.8,29.98,SSW,205,3.0,0.0,92,0.00,,,0.03,VWS V14.01,2013-12-15 16:20:00,
2013-12-15 11:25:00,31.8,29.8,29.98,SSW,212,3.0,0.0,92,0.00,,,0.03,VWS V14.01,2013-12-15 16:25:00,
2013-12-15 11:30:00,31.9,29.8,29.99,WSW,255,1.0,0.0,92,0.00,,,0.03,VWS V14.01,2013-12-15 16:30:00,
2013-12-15 11:35:00,31.9,29.8,29.99,West,279,5.0,0.0,92,0.00,,,0.03,VWS V14.01,2013-12-15 16:35:00,
2013-12-15 11:40:00,31.9,29.8,29.99,WSW,246,2.0,0.0,92,0.00,,,0.03,VWS V14.01,2013-12-15 16:40:00,
2013-12-15 11:45:00,31.9,29.6,29.98,NNW,336,0.0,0.0,91,0.00,,,0.03,VWS V14.01,2013-12-15 16:45:00,
2013-12-15 11:50:00,31.9,29.6,29.98,WSW,247,3.0,0.0,91,0.00,,,0.03,VWS V14.01,2013-12-15 16:50:00,
2013-12-15 11:55:00,31.9,29.6,29.98,SSW,193,1.0,0.0,91,0.00,,,0.03,VWS V14.01,2013-12-15 16:55:00,
2013-12-15 12:00:00,31.9,29.3,29.98,SSW,193,4.0,0.0,90,0.00,,,0.03,VWS V14.01,2013-12-15 17:00:00,
2013-12-15 12:05:00,31.8,29.2,29.98,SW,219,3.0,0.0,90,0.00,,,0.03,VWS V14.01,2013-12-15 17:05:00,
2013-12-15 12:10:00,31.9,29.3,29.98,WSW,253,4.0,0.0,90,0.00,,,0.03,VWS V14.01,2013-12-15 17:10:00,
2013-12-15 12:15:00,31.9,29.0,29.99,SW,216,4.0,0.0,89,0.00,,,0.03,VWS V14.01,2013-12-15 17:15:00,
2013-12-15 12:21:00,31.8,28.7,29.99,WNW,298,5.0,0.0,88,0.00,,,0.03,VWS V14.01,2013-12-15 17:21:00,
2013-12-15 12:26:00,31.8,28.7,29.99,NW,315,2.0,0.0,88,0.00,,,0.03,VWS V14.01,2013-12-15 17:26:00,
2013-12-15 12:31:00,31.8,28.7,29.99,NW,322,3.0,0.0,88,0.00,,,0.03,VWS V14.01,2013-12-15 17:31:00,
2013-12-15 12:36:00,31.8,28.4,29.99,NW,311,1.0,0.0,87,0.00,,,0.03,VWS V14.01,2013-12-15 17:36:00,
2013-12-15 12:41:00,31.8,28.1,29.99,West,277,3.0,0.0,86,0.00,,,0.03,VWS V14.01,2013-12-15 17:41:00,
2013-12-15 12:46:00,31.8,27.5,29.99,NW,316,1.0,0.0,84,0.00,,,0.03,VWS V14.01,2013-12-15 17:46:00,
2013-12-15 12:51:00,31.6,27.3,29.99,West,259,1.0,0.0,84,0.00,,,0.03,VWS V14.01,2013-12-15 17:51:00,
2013-12-15 12:56:00,31.6,27.3,29.99,SW,233,3.0,0.0,84,0.00,,,0.03,VWS V14.01,2013-12-15 17:56:00,
2013-12-15 13:01:00,31.5,27.2,30.00,SSW,200,4.0,0.0,84,0.00,,,0.03,VWS V14.01,2013-12-15 18:01:00,
2013-12-15 13:06:00,31.3,27.0,30.00,SW,215,4.0,0.0,84,0.00,,,0.03,VWS V14.01,2013-12-15 18:06:00,
2013-12-15 13:11:00,31.5,27.8,30.00,SSW,198,3.0,0.0,86,0.00,,,0.03,VWS V14.01,2013-12-15 18:11:00,
2013-12-15 13:16:00,31.3,27.3,30.00,West,275,0.0,0.0,85,0.00,,,0.03,VWS V14.01,2013-12-15 18:16:00,
2013-12-15 13:21:00,31.3,27.6,30.00,SW,232,2.0,0.0,86,0.00,,,0.03,VWS V14.01,2013-12-15 18:21:00,
2013-12-15 13:26:00,31.3,27.9,30.00,West,266,0.0,0.0,87,0.00,,,0.03,VWS V14.01,2013-12-15 18:26:00,
2013-12-15 13:31:00,31.3,27.6,30.00,SSW,209,7.0,0.0,86,0.00,,,0.03,VWS V14.01,2013-12-15 18:31:00,
2013-12-15 13:36:00,31.2,27.8,30.00,SW,215,5.0,0.0,87,0.00,,,0.03,VWS V14.01,2013-12-15 18:36:00,
2013-12-15 13:41:00,31.0,27.6,30.00,SW,220,1.0,0.0,87,0.00,,,0.03,VWS V14.01,2013-12-15 18:41:00,
2013-12-15 13:46:00,30.9,27.5,30.00,SW,231,0.0,0.0,87,0.00,,,0.03,VWS V14.01,2013-12-15 18:46:00,
2013-12-15 13:51:00,30.9,27.8,30.00,West,264,1.0,0.0,88,0.00,,,0.03,VWS V14.01,2013-12-15 18:51:00,
2013-12-15 13:56:00,31.0,27.6,30.00,West,279,3.0,0.0,87,0.00,,,0.03,VWS V14.01,2013-12-15 18:56:00,
2013-12-15 14:01:00,30.9,27.2,30.01,WSW,253,3.0,0.0,86,0.00,,,0.03,VWS V14.01,2013-12-15 19:01:00,
2013-12-15 14:07:00,31.0,27.3,30.01,SW,231,2.0,0.0,86,0.00,,,0.03,VWS V14.01,2013-12-15 19:07:00,
2013-12-15 14:12:00,31.2,27.5,30.01,SSW,200,2.0,0.0,86,0.00,,,0.03,VWS V14.01,2013-12-15 19:12:00,
2013-12-15 14:17:00,31.2,26.9,30.01,WSW,252,3.0,0.0,84,0.00,,,0.03,VWS V14.01,2013-12-15 19:17:00,
2013-12-15 14:22:00,31.2,27.2,30.01,WNW,302,1.0,0.0,85,0.00,,,0.03,VWS V14.01,2013-12-15 19:22:00,
2013-12-15 14:27:00,31.3,27.0,30.01,WNW,290,1.0,0.0,84,0.00,,,0.03,VWS V14.01,2013-12-15 19:27:00,
2013-12-15 14:32:00,31.3,27.0,30.02,West,278,0.0,0.0,84,0.00,,,0.03,VWS V14.01,2013-12-15 19:32:00,
2013-12-15 14:37:00,31.3,27.0,30.02,WSW,244,5.0,0.0,84,0.00,,,0.03,VWS V14.01,2013-12-15 19:37:00,
2013-12-15 14:42:00,31.3,27.0,30.02,WNW,298,2.0,0.0,84,0.00,,,0.03,VWS V14.01,2013-12-15 19:42:00,
2013-12-15 14:47:00,31.5,27.2,30.01,SW,223,2.0,0.0,84,0.00,,,0.03,VWS V14.01,2013-12-15 19:47:00,
2013-12-15 14:49:00,31.5,27.2,30.01,SSW,213,2.0,0.0,84,0.00,,,0.03,VWS V14.01,2013-12-15 19:49:00,
2013-12-15 14:54:00,31.5,27.2,30.01,WSW,246,2.0,0.0,84,0.00,,,0.03,VWS V14.01,2013-12-15 19:54:00,
2013-12-15 14:59:00,31.5,26.9,30.01,WSW,253,0.0,0.0,83,0.00,,,0.03,VWS V14.01,2013-12-15 19:59:00,
2013-12-15 15:04:00,31.6,27.3,30.02,WNW,287,4.0,0.0,84,0.00,,,0.03,VWS V14.01,2013-12-15 20:04:00,
2013-12-15 15:10:00,31.6,27.3,30.02,South,182,3.0,0.0,84,0.00,,,0.03,VWS V14.01,2013-12-15 20:10:00,
2013-12-15 15:15:00,31.5,26.6,30.02,West,279,2.0,0.0,82,0.00,,,0.03,VWS V14.01,2013-12-15 20:15:00,
2013-12-15 15:20:00,31.5,26.6,30.02,SSW,192,2.0,0.0,82,0.00,,,0.03,VWS V14.01,2013-12-15 20:20:00,
2013-12-15 15:25:00,31.5,26.6,30.02,WSW,247,0.0,0.0,82,0.00,,,0.03,VWS V14.01,2013-12-15 20:25:00,
2013-12-15 15:30:00,31.3,26.5,30.02,SW,235,0.0,0.0,82,0.00,,,0.03,VWS V14.01,2013-12-15 20:30:00,
2013-12-15 15:35:00,31.3,26.8,30.02,SW,234,2.0,0.0,83,0.00,,,0.03,VWS V14.01,2013-12-15 20:35:00,
2013-12-15 15:40:00,31.3,27.0,30.02,SW,234,0.0,0.0,84,0.00,,,0.03,VWS V14.01,2013-12-15 20:40:00,
2013-12-15 15:45:00,31.3,26.8,30.02,West,259,2.0,0.0,83,0.00,,,0.03,VWS V14.01,2013-12-15 20:45:00,
2013-12-15 15:50:00,31.5,27.2,30.03,WNW,294,2.0,0.0,84,0.00,,,0.03,VWS V14.01,2013-12-15 20:50:00,
2013-12-15 15:55:00,31.6,26.8,30.03,SW,234,1.0,0.0,82,0.00,,,0.03,VWS V14.01,2013-12-15 20:55:00,
2013-12-15 16:00:00,31.8,26.9,30.03,West,281,2.0,0.0,82,0.00,,,0.03,VWS V14.01,2013-12-15 21:00:00,
2013-12-15 16:05:00,31.8,26.9,30.04,SSW,213,0.0,0.0,82,0.00,,,0.03,VWS V14.01,2013-12-15 21:05:00,
2013-12-15 16:10:00,31.6,26.8,30.04,WSW,246,2.0,0.0,82,0.00,,,0.03,VWS V14.01,2013-12-15 21:10:00,
2013-12-15 16:15:00,31.6,26.8,30.04,North,355,3.0,0.0,82,0.00,,,0.03,VWS V14.01,2013-12-15 21:15:00,
2013-12-15 16:20:00,31.6,26.8,30.04,NW,309,0.0,0.0,82,0.00,,,0.03,VWS V14.01,2013-12-15 21:20:00,
2013-12-15 16:25:00,31.8,26.9,30.04,West,281,0.0,0.0,82,0.00,,,0.03,VWS V14.01,2013-12-15 21:25:00,
2013-12-15 16:30:00,31.8,27.2,30.05,NW,317,0.0,0.0,83,0.00,,,0.03,VWS V14.01,2013-12-15 21:30:00,
2013-12-15 16:35:00,31.8,27.2,30.05,WNW,293,3.0,0.0,83,0.00,,,0.03,VWS V14.01,2013-12-15 21:35:00,
2013-12-15 16:40:00,31.6,26.8,30.05,WNW,284,0.0,0.0,82,0.00,,,0.03,VWS V14.01,2013-12-15 21:40:00,
2013-12-15 16:45:00,31.6,26.8,30.05,SE,126,3.0,0.0,82,0.00,,,0.03,VWS V14.01,2013-12-15 21:45:00,
2013-12-15 16:50:00,31.5,26.4,30.05,SW,232,2.0,0.0,81,0.00,,,0.03,VWS V14.01,2013-12-15 21:50:00,
2013-12-15 16:55:00,31.5,26.6,30.05,West,280,0.0,0.0,82,0.00,,,0.03,VWS V14.01,2013-12-15 21:55:00,
2013-12-15 17:01:00,31.5,26.6,30.05,West,280,0.0,0.0,82,0.00,,,0.03,VWS V14.01,2013-12-15 22:01:00,
2013-12-15 17:06:00,31.5,26.4,30.05,West,269,1.0,0.0,81,0.00,,,0.03,VWS V14.01,2013-12-15 22:06:00,
2013-12-15 17:11:00,31.3,26.2,30.05,West,275,1.0,0.0,81,0.00,,,0.03,VWS V14.01,2013-12-15 22:11:00,
2013-12-15 17:16:00,31.3,26.5,30.07,West,269,0.0,0.0,82,0.00,,,0.03,VWS V14.01,2013-12-15 22:16:00,
2013-12-15 17:21:00,31.3,26.5,30.07,West,269,3.0,0.0,82,0.00,,,0.03,VWS V14.01,2013-12-15 22:21:00,
2013-12-15 17:26:00,31.3,26.5,30.07,West,269,0.0,0.0,82,0.00,,,0.03,VWS V14.01,2013-12-15 22:26:00,
2013-12-15 17:31:00,31.3,26.8,30.07,WNW,289,0.0,0.0,83,0.00,,,0.03,VWS V14.01,2013-12-15 22:31:00,
2013-12-15 17:36:00,31.3,27.0,30.07,WNW,289,0.0,0.0,84,0.00,,,0.03,VWS V14.01,2013-12-15 22:36:00,
2013-12-15 17:41:00,31.3,26.8,30.07,SSE,148,0.0,0.0,83,0.00,,,0.03,VWS V14.01,2013-12-15 22:41:00,
2013-12-15 17:46:00,31.3,27.0,30.07,SW,223,2.0,0.0,84,0.00,,,0.03,VWS V14.01,2013-12-15 22:46:00,
2013-12-15 17:51:00,31.2,26.9,30.07,SW,223,1.0,0.0,84,0.00,,,0.03,VWS V14.01,2013-12-15 22:51:00,
2013-12-15 17:56:00,31.2,26.6,30.07,West,274,2.0,0.0,83,0.00,,,0.03,VWS V14.01,2013-12-15 22:56:00,
2013-12-15 18:01:00,31.2,26.9,30.08,West,269,1.0,0.0,84,0.00,,,0.03,VWS V14.01,2013-12-15 23:01:00,
2013-12-15 18:06:00,31.2,26.6,30.08,WNW,298,2.0,0.0,83,0.00,,,0.03,VWS V14.01,2013-12-15 23:06:00,
2013-12-15 18:11:00,31.0,26.7,30.08,WSW,255,4.0,0.0,84,0.00,,,0.03,VWS V14.01,2013-12-15 23:11:00,
2013-12-15 18:16:00,31.0,26.7,30.09,SW,228,5.0,0.0,84,0.00,,,0.03,VWS V14.01,2013-12-15 23:16:00,
2013-12-15 18:21:00,31.0,27.0,30.09,West,275,4.0,0.0,85,0.00,,,0.03,VWS V14.01,2013-12-15 23:21:00,
2013-12-15 18:26:00,31.0,27.0,30.09,SSW,211,0.0,0.0,85,0.00,,,0.03,VWS V14.01,2013-12-15 23:26:00,
2013-12-15 18:31:00,31.0,27.0,30.09,WSW,242,0.0,0.0,85,0.00,,,0.03,VWS V14.01,2013-12-15 23:31:00,
2013-12-15 18:36:00,31.2,27.2,30.09,WSW,242,0.0,0.0,85,0.00,,,0.03,VWS V14.01,2013-12-15 23:36:00,
2013-12-15 18:41:00,31.2,27.2,30.09,WSW,242,1.0,0.0,85,0.00,,,0.03,VWS V14.01,2013-12-15 23:41:00,
2013-12-15 18:46:00,31.2,26.9,30.10,WSW,242,0.0,0.0,84,0.00,,,0.03,VWS V14.01,2013-12-15 23:46:00,
2013-12-15 18:51:00,31.2,26.9,30.10,West,277,4.0,0.0,84,0.00,,,0.03,VWS V14.01,2013-12-15 23:51:00,
2013-12-15 18:56:00,31.2,26.6,30.10,West,269,2.0,0.0,83,0.00,,,0.03,VWS V14.01,2013-12-15 23:56:00,
2013-12-15 19:01:00,31.2,26.9,30.11,West,281,0.0,0.0,84,0.00,,,0.03,VWS V14.01,2013-12-16 00:01:00,
2013-12-15 19:07:00,31.2,26.9,30.11,WSW,243,0.0,0.0,84,0.00,,,0.03,VWS V14.01,2013-12-16 00:07:00,
2013-12-15 19:12:00,31.3,27.0,30.11,NW,304,3.0,0.0,84,0.00,,,0.03,VWS V14.01,2013-12-16 00:12:00,
2013-12-15 19:17:00,31.3,27.0,30.12,WNW,298,0.0,0.0,84,0.00,,,0.03,VWS V14.01,2013-12-16 00:17:00,
2013-12-15 19:22:00,31.2,26.6,30.12,WSW,243,3.0,0.0,83,0.00,,,0.03,VWS V14.01,2013-12-16 00:22:00,
2013-12-15 19:27:00,31.0,26.2,30.12,NW,319,2.0,0.0,82,0.00,,,0.03,VWS V14.01,2013-12-16 00:27:00,
2013-12-15 19:32:00,31.0,25.9,30.12,NW,304,0.0,0.0,81,0.00,,,0.03,VWS V14.01,2013-12-16 00:32:00,
2013-12-15 19:37:00,31.0,25.9,30.12,SW,234,1.0,0.0,81,0.00,,,0.03,VWS V14.01,2013-12-16 00:37:00,
2013-12-15 19:42:00,31.0,26.2,30.12,SW,227,1.0,0.0,82,0.00,,,0.03,VWS V14.01,2013-12-16 00:42:00,
2013-12-15 19:47:00,31.0,25.9,30.12,SW,222,1.0,0.0,81,0.00,,,0.03,VWS V14.01,2013-12-16 00:47:00,
2013-12-15 19:52:00,31.2,26.4,30.12,WNW,283,1.0,0.0,82,0.00,,,0.03,VWS V14.01,2013-12-16 00:52:00,
2013-12-15 19:57:00,31.2,26.4,30.12,West,279,1.0,0.0,82,0.00,,,0.03,VWS V14.01,2013-12-16 00:57:00,
2013-12-15 20:02:00,31.2,26.1,30.12,West,279,2.0,0.0,81,0.00,,,0.03,VWS V14.01,2013-12-16 01:02:00,
2013-12-15 20:07:00,31.2,26.1,30.12,WSW,257,1.0,0.0,81,0.00,,,0.03,VWS V14.01,2013-12-16 01:07:00,
2013-12-15 20:12:00,31.0,25.9,30.12,West,267,1.0,0.0,81,0.00,,,0.03,VWS V14.01,2013-12-16 01:12:00,
2013-12-15 20:17:00,31.0,25.6,30.11,WSW,257,0.0,0.0,80,0.00,,,0.03,VWS V14.01,2013-12-16 01:17:00,
2013-12-15 20:22:00,30.9,25.5,30.11,SSW,210,1.0,0.0,80,0.00,,,0.03,VWS V14.01,2013-12-16 01:22:00,
2013-12-15 20:27:00,30.9,25.2,30.11,WSW,246,2.0,0.0,79,0.00,,,0.03,VWS V14.01,2013-12-16 01:27:00,
2013-12-15 20:32:00,30.7,25.3,30.12,South,188,0.0,0.0,80,0.00,,,0.03,VWS V14.01,2013-12-16 01:32:00,
2013-12-15 20:37:00,30.7,25.3,30.12,South,190,0.0,0.0,80,0.00,,,0.03,VWS V14.01,2013-12-16 01:37:00,
2013-12-15 20:42:00,30.9,25.5,30.12,West,270,3.0,0.0,80,0.00,,,0.03,VWS V14.01,2013-12-16 01:42:00,
2013-12-15 20:47:00,30.7,25.0,30.11,WNW,300,3.0,0.0,79,0.00,,,0.03,VWS V14.01,2013-12-16 01:47:00,
2013-12-15 20:52:00,30.7,25.0,30.11,WNW,290,3.0,0.0,79,0.00,,,0.03,VWS V14.01,2013-12-16 01:52:00,
2013-12-15 20:57:00,30.7,25.3,30.11,WNW,290,1.0,0.0,80,0.00,,,0.03,VWS V14.01,2013-12-16 01:57:00,
2013-12-15 21:02:00,30.6,24.9,30.11,West,259,1.0,0.0,79,0.00,,,0.03,VWS V14.01,2013-12-16 02:02:00,
2013-12-15 21:07:00,30.6,24.9,30.11,WSW,244,4.0,0.0,79,0.00,,,0.03,VWS V14.01,2013-12-16 02:07:00,
2013-12-15 21:13:00,30.6,25.2,30.11,WNW,288,1.0,0.0,80,0.00,,,0.03,VWS V14.01,2013-12-16 02:13:00,
2013-12-15 21:18:00,30.6,25.2,30.11,WNW,288,2.0,0.0,80,0.00,,,0.03,VWS V14.01,2013-12-16 02:18:00,
2013-12-15 21:23:00,30.7,25.6,30.11,WSW,242,0.0,0.0,81,0.00,,,0.03,VWS V14.01,2013-12-16 02:23:00,
2013-12-15 21:28:00,30.7,25.3,30.11,WSW,242,0.0,0.0,80,0.00,,,0.03,VWS V14.01,2013-12-16 02:28:00,
2013-12-15 21:33:00,30.6,25.2,30.10,SW,228,1.0,0.0,80,0.00,,,0.03,VWS V14.01,2013-12-16 02:33:00,
2013-12-15 21:38:00,30.6,25.5,30.10,SW,228,0.0,0.0,81,0.00,,,0.03,VWS V14.01,2013-12-16 02:38:00,
2013-12-15 21:43:00,30.6,25.5,30.10,WNW,290,1.0,0.0,81,0.00,,,0.03,VWS V14.01,2013-12-16 02:43:00,
2013-12-15 21:48:00,30.4,25.3,30.13,WNW,290,1.0,0.0,81,0.00,,,0.03,VWS V14.01,2013-12-16 02:48:00,
2013-12-15 21:53:00,30.4,25.3,30.13,NW,306,2.0,0.0,81,0.00,,,0.03,VWS V14.01,2013-12-16 02:53:00,
2013-12-15 21:58:00,30.4,25.3,30.13,SW,216,2.0,0.0,81,0.00,,,0.03,VWS V14.01,2013-12-16 02:58:00,
2013-12-15 22:03:00,30.3,25.2,30.12,SW,232,0.0,0.0,81,0.00,,,0.03,VWS V14.01,2013-12-16 03:03:00,
2013-12-15 22:08:00,30.3,25.5,30.12,SSE,149,0.0,0.0,82,0.00,,,0.03,VWS V14.01,2013-12-16 03:08:00,
2013-12-15 22:13:00,30.3,25.2,30.12,WSW,258,1.0,0.0,81,0.00,,,0.03,VWS V14.01,2013-12-16 03:13:00,
2013-12-15 22:18:00,30.3,25.5,30.13,WSW,258,0.0,0.0,82,0.00,,,0.03,VWS V14.01,2013-12-16 03:18:00,
2013-12-15 22:23:00,30.3,25.5,30.13,WSW,258,2.0,0.0,82,0.00,,,0.03,VWS V14.01,2013-12-16 03:23:00,
2013-12-15 22:28:00,30.3,25.5,30.13,WSW,258,1.0,0.0,82,0.00,,,0.03,VWS V14.01,2013-12-16 03:28:00,
2013-12-15 22:33:00,30.1,25.0,30.12,WSW,258,0.0,0.0,81,0.00,,,0.03,VWS V14.01,2013-12-16 03:33:00,
2013-12-15 22:38:00,30.1,25.3,30.12,WSW,258,0.0,0.0,82,0.00,,,0.03,VWS V14.01,2013-12-16 03:38:00,
2013-12-15 22:39:00,30.1,25.3,30.12,WSW,258,0.0,0.0,82,0.00,,,0.03,VWS V14.01,2013-12-16 03:39:00,
2013-12-15 22:44:00,30.3,25.5,30.12,WSW,239,1.0,0.0,82,0.00,,,0.03,VWS V14.01,2013-12-16 03:44:00,
2013-12-15 22:49:00,30.3,25.2,30.12,WSW,243,1.0,0.0,81,0.00,,,0.03,VWS V14.01,2013-12-16 03:49:00,
2013-12-15 22:54:00,30.3,25.5,30.12,SW,222,0.0,0.0,82,0.00,,,0.03,VWS V14.01,2013-12-16 03:54:00,
2013-12-15 22:59:00,30.3,25.2,30.12,WNW,288,3.0,0.0,81,0.00,,,0.03,VWS V14.01,2013-12-16 03:59:00,
2013-12-15 23:04:00,30.3,25.2,30.12,SW,228,1.0,0.0,81,0.00,,,0.03,VWS V14.01,2013-12-16 04:04:00,
2013-12-15 23:09:00,30.1,25.0,30.12,SW,236,0.0,0.0,81,0.00,,,0.03,VWS V14.01,2013-12-16 04:09:00,
2013-12-15 23:14:00,30.1,25.3,30.12,WSW,247,0.0,0.0,82,0.00,,,0.03,VWS V14.01,2013-12-16 04:14:00,
2013-12-15 23:19:00,30.1,25.3,30.12,WSW,241,1.0,0.0,82,0.00,,,0.03,VWS V14.01,2013-12-16 04:19:00,
2013-12-15 23:24:00,30.1,25.3,30.12,WSW,241,0.0,0.0,82,0.00,,,0.03,VWS V14.01,2013-12-16 04:24:00,
2013-12-15 23:29:00,30.3,25.5,30.12,West,266,2.0,0.0,82,0.00,,,0.03,VWS V14.01,2013-12-16 04:29:00,
2013-12-15 23:34:00,30.1,25.0,30.12,WSW,240,2.0,0.0,81,0.00,,,0.03,VWS V14.01,2013-12-16 04:34:00,
2013-12-15 23:39:00,30.1,25.3,30.12,SW,224,0.0,0.0,82,0.00,,,0.03,VWS V14.01,2013-12-16 04:39:00,
2013-12-15 23:44:00,30.1,25.3,30.12,WNW,294,0.0,0.0,82,0.00,,,0.03,VWS V14.01,2013-12-16 04:44:00,
2013-12-15 23:49:00,30.1,25.3,30.12,SSW,199,0.0,0.0,82,0.00,,,0.03,VWS V14.01,2013-12-16 04:49:00,
2013-12-15 23:54:00,30.1,25.6,30.12,WSW,254,2.0,0.0,83,0.00,,,0.03,VWS V14.01,2013-12-16 04:54:00,